Location: Unspecified
(0.0000°N, 0.0000°E)
Time: 09:30:53
(UTC+01:00)

Ariane H10+ - Visible Passes

Search period start: 23 January 2017 00:00
Search period end: 02 February 2017 00:00
Orbit: 326 x 31342 km, 6.9° (Epoch: 23 January)

Date Brightness Start Highest point End Pass type
(mag) Time Alt. Az. Time Alt. Az. Time Alt. Az.
23 Jan 7.7 02:53:37 10° W 04:46:17 63° WSW 11:19:04 10° E visible
23 Jan 5.5 20:48:08 10° WNW 20:54:02 78° NNE 04:56:21 10° E visible
25 Jan 8.1 00:26:17 10° W 01:02:18 83° S 08:56:31 10° E visible
26 Jan 6.7 04:21:24 10° W 06:06:16 40° W 12:35:22 10° ENE visible
26 Jan 6.7 22:04:15 10° W 22:14:40 90° N 06:27:24 10° E visible
28 Jan 8.4 01:45:39 10° W 03:38:18 77° SW 10:14:25 10° E visible
28 Jan 4.7 19:44:10 10° WNW 19:48:21 67° NNE 20:15:30 10° E visible
29 Jan 9.9 06:10:08 10° W 07:22:47 18° W 09:34:32 10° W visible
29 Jan 7.9 23:20:56 10° W 23:41:21 85° S 07:49:57 10° E visible
31 Jan 7.4 03:08:29 10° W 05:00:22 55° WSW 11:30:57 10° ENE visible
31 Jan 5.9 20:59:47 10° W 21:06:54 86° N 05:14:48 10° E visible
